[[[{"header":{"parameterUnit":"kt","parameterCategory":2,"dx":1,"dy":1,"la1":30.253999710083008,"la2":30.299108505249023,"lo1":-89.0895004272461,"lo2":-89.04439544677734,"nx":28,"ny":28,"refTime":"2022-10-05T21:00:00:Z","depth":0,"parameterNumber":1,"parameterNumberName":"U-component_of_WINDS"},"data":[-1.3698,-1.367,-1.3665,-1.3631,-1.362,-1.3596,-1.3585,-1.3571,-1.3558,-1.3528,-1.351,-1.3501,-1.3486,-1.3462,-1.3442,-1.3438,-1.343,-1.3426,-1.3422,-1.3447,-1.345,-1.3453,-1.346,-1.3424,-1.3424,-1.3397,-1.3397,-1.3397,-1.3722,-1.3712,-1.3691,-1.3668,-1.3651,-1.3653,-1.3634,-1.3619,-1.3597,-1.358,-1.3561,-1.3534,-1.3511,-1.3496,-1.3473,-1.346,-1.3459,-1.3454,-1.3455,-1.3453,-1.348,-1.3487,-1.3456,-1.3456,-1.3456,-1.3456,-1.3456,-1.3456,-1.3765,-1.3748,-1.373,-1.3708,-1.3694,-1.3678,-1.3661,-1.365,-1.3629,-1.3604,-1.36,-1.3574,-1.3555,-1.3523,-1.351,-1.349,-1.3493,-1.3485,-1.3483,-1.3482,-1.3482,-1.3525,-1.3485,-1.3485,-1.3485,-1.3485,-1.3485,0,-1.3794,-1.3791,-1.377,-1.3748,-1.3731,-1.3712,-1.3694,-1.3683,-1.3671,-1.3654,-1.3629,-1.3614,-1.3583,-1.3558,-1.3534,-1.3521,-1.3519,-1.3517,-1.3512,-1.3515,-1.3521,-1.3519,-1.3564,-1.3518,-1.3518,-1.3518,-1.3519,-1.3519,-1.3838,-1.3818,-1.3795,-1.3781,-1.3769,-1.3746,-1.3732,-1.3722,-1.3706,-1.3682,-1.3667,-1.3642,-1.3621,-1.3581,-1.3566,-1.3542,-1.354,-1.3524,-1.3536,-1.354,-1.3541,-1.3542,-1.3541,-1.3521,-1.3521,-1.3521,-1.352,0,-1.3863,-1.3852,-1.3818,-1.3796,-1.379,-1.3769,-1.3751,-1.3732,-1.3722,-1.3695,-1.3688,-1.3671,-1.3646,-1.3633,-1.36,-1.3594,-1.3561,-1.356,-1.3569,-1.3568,-1.3553,-1.3555,-1.3504,-1.3497,-1.3533,-1.3533,-1.3533,0,-1.3896,-1.3869,-1.3854,-1.3834,-1.3805,-1.3795,-1.3766,-1.3754,-1.3736,-1.3714,-1.371,-1.369,-1.3675,-1.3654,-1.3644,-1.3615,-1.3608,-1.3602,-1.36,-1.3602,-1.3603,-1.3592,-1.3594,-1.3594,-1.3594,-1.3594,-1.3594,0,-1.3936,-1.3895,-1.3864,-1.3853,-1.3825,-1.381,-1.3798,-1.3777,-1.3761,-1.3739,-1.3729,-1.3703,-1.3689,-1.3669,-1.3658,-1.3667,-1.3621,-1.363,-1.3614,-1.3614,-1.3603,-1.3604,-1.3563,-1.3595,-1.3595,-1.3595,-1.3595,0,-1.396,-1.3938,-1.3893,-1.3871,-1.386,-1.3838,-1.3813,-1.3791,-1.3769,-1.3762,-1.3744,-1.3738,-1.371,-1.3721,-1.3682,-1.3698,-1.3685,-1.3675,-1.3674,-1.367,-1.3683,-1.3662,-1.3624,-1.3619,-1.3668,-1.3669,-1.3669,0,-1.4011,-1.3962,-1.3952,-1.391,-1.3885,-1.3882,-1.3858,-1.3838,-1.3826,-1.3803,-1.379,-1.3763,-1.3768,-1.3757,-1.374,-1.3724,-1.3704,-1.3727,-1.3694,-1.3693,-1.3701,-1.3666,-1.3664,-1.3634,-1.3677,-1.3676,-1.3676,0,-1.4048,-1.4013,-1.4006,-1.3993,-1.3964,-1.3942,-1.3914,-1.3885,-1.3871,-1.3847,-1.3824,-1.3785,-1.3788,-1.3769,-1.3761,-1.3743,-1.3718,-1.3748,-1.3747,-1.3744,-1.3679,-1.3677,-1.3672,-1.3716,-1.3715,-1.3714,-1.3682,0,-1.4089,-1.4061,-1.4041,-1.4009,-1.399,-1.3961,-1.3946,-1.3928,-1.3923,-1.391,-1.3874,-1.385,-1.3819,-1.3808,-1.3801,-1.3766,-1.3769,-1.3771,-1.378,-1.3757,-1.3746,-1.3741,-1.3798,-1.3799,-1.3799,-1.3799,0,0,-1.414,-1.41,-1.4088,-1.406,-1.4043,-1.4039,-1.4009,-1.3992,-1.3956,-1.3945,-1.395,-1.3891,-1.3871,-1.3828,-1.382,-1.3806,-1.3798,-1.3806,-1.3768,-1.3764,-1.3761,-1.3749,-1.3745,-1.3799,-1.3799,-1.3799,-1.3799,0,-1.4151,-1.4133,-1.4104,-1.4085,-1.4058,-1.4045,-1.4038,-1.4009,-1.3999,-1.3962,-1.3958,-1.3933,-1.3884,-1.3865,-1.3848,-1.3811,-1.3808,-1.3803,-1.3789,-1.377,-1.3766,-1.3763,-1.3751,-1.3747,-1.3799,-1.3799,-1.3799,0,-1.4186,-1.4165,-1.4149,-1.4109,-1.409,-1.4063,-1.407,-1.404,-1.402,-1.4013,-1.3976,-1.396,-1.3932,-1.3893,-1.3874,-1.3878,-1.3818,-1.3832,-1.3831,-1.3828,-1.3808,-1.3804,-1.38,-1.385,-1.3851,-1.3851,0,0,-1.4197,-1.4171,-1.4144,-1.411,-1.4098,-1.4078,-1.4061,-1.4053,-1.4028,-1.4018,-1.3997,-1.3972,-1.3944,-1.3925,-1.3897,-1.3856,-1.3849,-1.384,-1.3837,-1.3835,-1.3832,-1.3811,-1.3807,-1.3852,-1.3852,-1.3852,0,0,-1.4202,-1.417,-1.4168,-1.4127,-1.4104,-1.4073,-1.4053,-1.405,-1.4023,-1.4024,-1.4008,-1.4,-1.3963,-1.3947,-1.3962,-1.39,-1.3909,-1.3905,-1.3912,-1.3908,-1.3906,-1.391,-1.3963,0,0,0,0,0,-1.4205,-1.4174,-1.4173,-1.4164,-1.4111,-1.4074,-1.4068,-1.4054,-1.4062,-1.4046,-1.4029,-1.4025,-1.3952,-1.3965,-1.3956,-1.3938,-1.3864,-1.3862,-1.386,-1.3859,-1.3856,-1.3853,0,0,0,0,0,0,-1.4201,-1.4189,-1.4174,-1.4143,-1.4131,-1.4075,-1.4085,-1.4081,-1.4063,-1.4063,-1.4029,-1.4024,-1.4011,-1.3969,-1.3961,-1.3944,-1.3966,-1.3863,-1.3861,-1.386,-1.3858,-1.3855,-1.3853,0,0,0,0,0,-1.4198,-1.4188,-1.4108,-1.4143,-1.4132,-1.4107,-1.4086,-1.4083,-1.4068,-1.404,-1.4035,-1.406,-1.4011,-1.4002,-1.3964,-1.3949,-1.3972,-1.3969,-1.3862,-1.3861,-1.3859,-1.3857,0,0,0,0,0,0,-1.4195,-1.4184,-1.4105,-1.4102,-1.4153,-1.411,-1.4103,-1.4084,-1.4046,-1.4041,-1.407,-1.407,-1.401,-1.4004,-1.3998,-1.3951,-1.3976,-1.3973,-1.3971,-1.3861,-1.386,-1.3859,0,0,0,0,0,0,-1.4189,-1.4181,-1.4104,-1.4117,-1.4115,-1.4113,-1.4106,-1.4071,-1.4045,-1.4078,-1.4077,-1.407,-1.4019,-1.4005,-1.4,-1.3945,-1.398,-1.3977,-1.3975,-1.3974,-1.386,-1.3859,0,0,0,0,0,0,-1.4186,-1.4179,-1.4118,-1.4116,-1.4114,-1.4072,-1.4081,-1.4027,-1.4058,-1.4079,-1.4061,-1.4062,-1.402,-1.4015,-1.4002,-1.3949,-1.3946,-1.398,-1.3978,-1.3976,-1.3975,0,0,0,0,0,0,0,-1.4183,-1.4232,-1.4127,-1.4115,-1.4114,-1.4068,-1.4067,-1.4066,-1.4059,-1.406,-1.406,-1.4061,-1.3997,-1.3994,-1.3991,-1.3952,0,0,-1.398,-1.3979,0,0,0,0,0,0,0,0,-1.4235,-1.4233,-1.4127,-1.4127,-1.4126,-1.4068,-1.4067,-1.4066,-1.4059,-1.4059,-1.406,-1.4061,-1.3997,-1.3994,-1.3991,0,0,0,0,0,0,0,0,0,0,0,0,0,0,0,-1.4127,-1.4127,0,-1.4067,-1.4067,-1.4066,-1.4059,-1.4059,-1.406,-1.4061,-1.3996,-1.3994,-1.3991,0,0,0,0,0,0,0,0,0,0,0,0,0,0,0,0,0,0,0,0,0,0,0,0,0,0,0,0,0,0,0,0,0,0,0,0,0,0,0,0,0,0,0,0,0,0,0,0,0,0,0,0,0,0,0,0,0,0,0,0,0,0,0,0,0,0,0,0,0]}],[{"header":{"parameterUnit":"kt","parameterCategory":2,"dx":1,"dy":1,"la1":30.253999710083008,"la2":30.299108505249023,"lo1":-89.0895004272461,"lo2":-89.04439544677734,"nx":28,"ny":28,"refTime":"2022-10-05T21:00:00:Z","depth":0,"parameterNumber":2,"parameterNumberName":"V-component_of_WINDS"},"data":[1.1266,1.1246,1.1233,1.1203,1.1187,1.1163,1.1151,1.1133,1.1115,1.1083,1.1063,1.1047,1.1023,1.0994,1.0969,1.0962,1.0952,1.0951,1.0943,1.0958,1.0959,1.096,1.0964,1.095,1.095,1.0929,1.0929,1.0928,1.1269,1.1253,1.1236,1.121,1.1193,1.1185,1.1164,1.1149,1.1128,1.1107,1.1088,1.1059,1.1034,1.101,1.0984,1.097,1.0964,1.0964,1.0963,1.0959,1.0975,1.0979,1.0968,1.0968,1.0968,1.0968,1.0968,1.0968,1.1272,1.1261,1.124,1.122,1.1205,1.1187,1.1174,1.1157,1.1138,1.1112,1.1102,1.1078,1.1054,1.1018,1.1003,1.0981,1.098,1.0975,1.0973,1.0972,1.097,1.0995,1.0977,1.0977,1.0977,1.0977,1.0977,0,1.127,1.1261,1.1245,1.1224,1.121,1.1193,1.1176,1.1167,1.1145,1.1131,1.1109,1.1094,1.1063,1.1039,1.1013,1.0999,1.0988,1.0988,1.0983,1.0986,1.099,1.0984,1.1007,1.0988,1.0988,1.0988,1.0988,1.0988,1.1269,1.126,1.1235,1.1224,1.1213,1.1197,1.1185,1.1167,1.1155,1.113,1.112,1.1098,1.1079,1.1044,1.1025,1.1002,1.0996,1.0989,1.0993,1.0995,1.0992,1.0992,1.0989,1.0989,1.0989,1.0989,1.0989,0,1.1269,1.1253,1.1236,1.1213,1.1206,1.1196,1.1175,1.1163,1.115,1.1132,1.1126,1.1105,1.1083,1.1065,1.1038,1.1028,1.1004,1.1002,1.1011,1.1008,1.0998,1.0998,1.0975,1.0969,1.0987,1.0987,1.0987,0,1.1261,1.1251,1.1227,1.1219,1.1204,1.1189,1.1175,1.1162,1.1145,1.1131,1.1119,1.1105,1.1086,1.1068,1.1055,1.1033,1.103,1.102,1.1016,1.102,1.1021,1.1012,1.1011,1.1013,1.1013,1.1014,1.1014,0,1.1261,1.1239,1.1225,1.1217,1.1192,1.1185,1.1174,1.1156,1.1145,1.1128,1.112,1.1102,1.1091,1.1075,1.1058,1.1061,1.1033,1.1033,1.1023,1.1023,1.1017,1.1018,1.1002,1.1014,1.1014,1.1014,1.1014,0,1.1253,1.1239,1.1223,1.1201,1.1196,1.1187,1.1168,1.1157,1.1139,1.1131,1.1118,1.1108,1.1092,1.1092,1.1067,1.1074,1.1063,1.1053,1.1052,1.1049,1.1049,1.104,1.103,1.1026,1.1045,1.1045,1.1045,0,1.1254,1.1236,1.1224,1.1209,1.1198,1.1185,1.1174,1.1161,1.115,1.1136,1.1124,1.111,1.1107,1.1101,1.1091,1.1076,1.1067,1.1078,1.1053,1.1053,1.1056,1.1047,1.1049,1.1034,1.1049,1.1048,1.1048,0,1.1254,1.1229,1.1228,1.1218,1.12,1.1192,1.1181,1.1165,1.1157,1.1145,1.1133,1.1115,1.111,1.1101,1.1093,1.1083,1.1073,1.1081,1.108,1.1077,1.1051,1.1051,1.1049,1.1068,1.1068,1.1067,1.1051,0,1.1238,1.123,1.1227,1.1211,1.1203,1.1195,1.1181,1.1173,1.1166,1.1156,1.114,1.1127,1.1111,1.1107,1.1101,1.1086,1.1086,1.1083,1.1082,1.1077,1.1071,1.1069,1.1092,1.1091,1.1091,1.1091,0,0,1.1242,1.1231,1.1221,1.1213,1.1205,1.1195,1.1187,1.1178,1.1162,1.1156,1.1155,1.1129,1.1119,1.1102,1.1099,1.1095,1.1089,1.1094,1.108,1.1079,1.1078,1.1072,1.107,1.1091,1.1091,1.1091,1.1091,0,1.1234,1.1228,1.1223,1.1214,1.1201,1.1192,1.1191,1.1176,1.117,1.1158,1.1149,1.1138,1.1121,1.111,1.1102,1.1095,1.1088,1.1092,1.1091,1.108,1.1079,1.1078,1.1072,1.107,1.1091,1.1091,1.1091,0,1.1229,1.122,1.1218,1.1205,1.1197,1.1188,1.1183,1.1175,1.1167,1.1158,1.1146,1.1137,1.1123,1.1111,1.1106,1.1105,1.1087,1.1093,1.1093,1.1092,1.108,1.1079,1.1078,1.1091,1.1091,1.1091,0,0,1.1224,1.1218,1.1205,1.1202,1.1198,1.1186,1.1181,1.1174,1.1163,1.1159,1.1149,1.1137,1.1126,1.1119,1.1109,1.1099,1.1092,1.1093,1.1093,1.1093,1.1092,1.1081,1.1079,1.1091,1.1091,1.1091,0,0,1.1221,1.1206,1.1202,1.1198,1.1189,1.1175,1.1173,1.1167,1.1157,1.1156,1.1144,1.1141,1.113,1.1123,1.1127,1.1107,1.1107,1.1106,1.1113,1.1113,1.1113,1.1114,1.112,0,0,0,0,0,1.1208,1.1208,1.1204,1.1202,1.1187,1.1177,1.1174,1.1166,1.1164,1.1162,1.1152,1.1147,1.1122,1.1125,1.1122,1.1118,1.1094,1.1094,1.1093,1.11,1.11,1.11,0,0,0,0,0,0,1.1207,1.1204,1.1204,1.1191,1.1188,1.1177,1.1172,1.1169,1.1164,1.1163,1.1149,1.1146,1.1138,1.1126,1.1123,1.1119,1.1121,1.1094,1.1094,1.1093,1.11,1.11,1.11,0,0,0,0,0,1.1206,1.1204,1.1183,1.1191,1.1188,1.1175,1.1172,1.117,1.1165,1.1151,1.1149,1.1159,1.1138,1.1135,1.1124,1.1121,1.1123,1.1122,1.1094,1.1093,1.1093,1.11,0,0,0,0,0,0,1.1205,1.1201,1.1183,1.1181,1.1191,1.1176,1.1173,1.117,1.1154,1.1151,1.1161,1.1161,1.1138,1.1136,1.1134,1.1121,1.1124,1.1123,1.1123,1.1093,1.1093,1.1093,0,0,0,0,0,0,1.1202,1.12,1.1182,1.1183,1.1182,1.1176,1.1174,1.1165,1.1154,1.1164,1.1164,1.1161,1.1141,1.1136,1.1135,1.112,1.1125,1.1125,1.1124,1.1123,1.1093,1.1093,0,0,0,0,0,0,1.1201,1.1199,1.1183,1.1182,1.1181,1.1165,1.1167,1.1153,1.1156,1.1165,1.1156,1.1156,1.1141,1.114,1.1135,1.1122,1.1121,1.1125,1.1125,1.1124,1.1124,0,0,0,0,0,0,0,1.12,1.1215,1.1191,1.1182,1.1181,1.1168,1.1168,1.1168,1.1156,1.1156,1.1156,1.1156,1.1131,1.113,1.1129,1.1123,0,0,1.1125,1.1125,0,0,0,0,0,0,0,0,1.1216,1.1215,1.1191,1.119,1.119,1.1168,1.1168,1.1168,1.1156,1.1156,1.1156,1.1156,1.113,1.1129,1.1129,0,0,0,0,0,0,0,0,0,0,0,0,0,0,0,1.1191,1.119,0,1.1168,1.1168,1.1168,1.1156,1.1156,1.1156,1.1156,1.113,1.1129,1.1129,0,0,0,0,0,0,0,0,0,0,0,0,0,0,0,0,0,0,0,0,0,0,0,0,0,0,0,0,0,0,0,0,0,0,0,0,0,0,0,0,0,0,0,0,0,0,0,0,0,0,0,0,0,0,0,0,0,0,0,0,0,0,0,0,0,0,0,0,0]}]]]